Hourly Weather Rudniki

Today, 22 April, Thursday

Time Temperature Precipitation Wind Pressure Humidity
00:00 +5°C° 0.1 mm 4 mps 756 mmHg 72%
01:00 +4°C° 0.1 mm 4 mps 756 mmHg 77%
02:00 +3°C° 0 mm 4 mps 756 mmHg 77%
03:00 +2°C° 0 mm 5 mps 756 mmHg 78%
04:00 +1°C° 0 mm 5 mps 756 mmHg 78%
05:00 +2°C° 0 mm 6 mps 756 mmHg 76%
06:00 +2°C° 0 mm 6 mps 756 mmHg 73%
07:00 +3°C° 0 mm 7 mps 756 mmHg 71%
08:00 +4°C° 0.1 mm 7 mps 756 mmHg 65%
09:00 +5°C° 0.1 mm 8 mps 756 mmHg 59%
10:00 +6°C° 0.1 mm 9 mps 756 mmHg 53%
11:00 +6°C° 0.1 mm 9 mps 757 mmHg 50%
12:00 +7°C° 0.1 mm 9 mps 757 mmHg 48%
13:00 +7°C° 0.1 mm 9 mps 757 mmHg 46%
14:00 +6°C° 0 mm 9 mps 757 mmHg 49%
15:00 +6°C° 0 mm 8 mps 758 mmHg 51%
16:00 +5°C° 0 mm 7 mps 758 mmHg 54%
17:00 +4°C° 0 mm 7 mps 758 mmHg 57%
18:00 +4°C° 0 mm 6 mps 759 mmHg 60%
19:00 +3°C° 0 mm 6 mps 759 mmHg 62%
20:00 +3°C° 0 mm 5 mps 759 mmHg 63%
21:00 +2°C° 0 mm 5 mps 759 mmHg 63%
22:00 +2°C° 0 mm 5 mps 759 mmHg 63%
23:00 +2°C° 0 mm 5 mps 760 mmHg 67%

Tomorrow, 23 April, Friday

Time Temperature Precipitation Wind Pressure Humidity
00:00 +2°C° 0 mm 5 mps 760 mmHg 71%
01:00 +1°C° 0 mm 4 mps 760 mmHg 75%
02:00 +1°C° 0 mm 4 mps 760 mmHg 76%
03:00 0°C° 0 mm 4 mps 760 mmHg 78%
04:00 0°C° 0 mm 4 mps 761 mmHg 79%
05:00 +1°C° 0 mm 4 mps 761 mmHg 74%
06:00 +2°C° 0 mm 5 mps 761 mmHg 69%
07:00 +3°C° 0 mm 5 mps 761 mmHg 64%
08:00 +5°C° 0 mm 5 mps 761 mmHg 58%
09:00 +5°C° 0 mm 6 mps 761 mmHg 52%
10:00 +7°C° 0 mm 6 mps 762 mmHg 46%
11:00 +7°C° 0.2 mm 6 mps 762 mmHg 48%
12:00 +5°C° 0.2 mm 6 mps 762 mmHg 51%
13:00 +5°C° 0.2 mm 6 mps 762 mmHg 54%
14:00 +5°C° 0.1 mm 6 mps 762 mmHg 50%
15:00 +5°C° 0.1 mm 7 mps 763 mmHg 47%
16:00 +5°C° 0.1 mm 7 mps 763 mmHg 44%
17:00 +4°C° 0 mm 6 mps 763 mmHg 48%
18:00 +4°C° 0 mm 4 mps 763 mmHg 52%
19:00 +3°C° 0 mm 3 mps 764 mmHg 56%
20:00 +2°C° 0 mm 3 mps 764 mmHg 59%
21:00 +2°C° 0 mm 3 mps 764 mmHg 61%
22:00 +1°C° 0 mm 3 mps 764 mmHg 63%
23:00 +1°C° 0 mm 3 mps 764 mmHg 68%

Day after tomorrow, 24 April, Saturday

Time Temperature Precipitation Wind Pressure Humidity
00:00 0°C° 0 mm 3 mps 764 mmHg 72%
01:00 0°C° 0 mm 3 mps 764 mmHg 77%
02:00 0°C° 0 mm 3 mps 764 mmHg 76%
03:00 0°C° 0 mm 3 mps 764 mmHg 75%
04:00 -1°C° 0 mm 3 mps 764 mmHg 75%
05:00 0°C° 0 mm 4 mps 764 mmHg 70%
06:00 +3°C° 0 mm 4 mps 764 mmHg 65%
07:00 +4°C° 0 mm 4 mps 764 mmHg 60%
08:00 +5°C° 0 mm 4 mps 764 mmHg 51%
09:00 +7°C° 0 mm 4 mps 764 mmHg 43%
10:00 +8°C° 0 mm 4 mps 764 mmHg 34%
11:00 +8°C° 0 mm 5 mps 764 mmHg 35%
12:00 +8°C° 0 mm 5 mps 764 mmHg 37%
13:00 +8°C° 0 mm 5 mps 764 mmHg 38%
14:00 +7°C° 0 mm 5 mps 764 mmHg 43%
15:00 +7°C° 0 mm 5 mps 764 mmHg 48%
16:00 +5°C° 0 mm 6 mps 764 mmHg 53%
17:00 +3°C° 0 mm 5 mps 765 mmHg 56%
18:00 +3°C° 0 mm 4 mps 765 mmHg 58%
19:00 +1°C° 0 mm 3 mps 765 mmHg 61%
20:00 +2°C° 0 mm 2 mps 765 mmHg 63%
21:00 +1°C° 0 mm 2 mps 765 mmHg 65%
22:00 -1°C° 0 mm 2 mps 766 mmHg 66%
23:00 -1°C° 0 mm 2 mps 766 mmHg 67%

25 April, Sunday

Time Temperature Precipitation Wind Pressure Humidity
00:00 -1°C° 0 mm 2 mps 766 mmHg 68%
01:00 -1°C° 0 mm 2 mps 766 mmHg 69%
02:00 -1°C° 0 mm 2 mps 766 mmHg 68%
03:00 -1°C° 0 mm 2 mps 766 mmHg 67%
04:00 -1°C° 0 mm 2 mps 765 mmHg 66%
05:00 +2°C° 0 mm 2 mps 765 mmHg 63%
06:00 +2°C° 0 mm 3 mps 765 mmHg 59%
07:00 +3°C° 0 mm 3 mps 765 mmHg 55%
08:00 +4°C° 0.1 mm 4 mps 765 mmHg 50%
09:00 +5°C° 0.1 mm 5 mps 765 mmHg 46%
10:00 +5°C° 0.1 mm 6 mps 765 mmHg 41%
11:00 +5°C° 0.1 mm 6 mps 765 mmHg 41%
12:00 +6°C° 0.1 mm 7 mps 765 mmHg 41%
13:00 +6°C° 0.1 mm 7 mps 765 mmHg 41%
14:00 +5°C° 0 mm 7 mps 765 mmHg 42%
15:00 +5°C° 0 mm 7 mps 765 mmHg 43%
16:00 +4°C° 0 mm 7 mps 765 mmHg 44%
17:00 +3°C° 0 mm 5 mps 765 mmHg 49%
18:00 +1°C° 0 mm 4 mps 765 mmHg 55%
19:00 +2°C° 0 mm 2 mps 765 mmHg 60%
20:00 +1°C° 0 mm 2 mps 765 mmHg 60%
21:00 +1°C° 0 mm 2 mps 765 mmHg 60%
22:00 +1°C° 0 mm 2 mps 765 mmHg 59%
23:00 -1°C° 0 mm 2 mps 765 mmHg 64%

26 April, Monday

Time Temperature Precipitation Wind Pressure Humidity
00:00 -1°C° 0 mm 2 mps 764 mmHg 68%
01:00 -1°C° 0 mm 3 mps 764 mmHg 72%
02:00 -1°C° 0 mm 3 mps 764 mmHg 77%
03:00 -1°C° 0 mm 3 mps 763 mmHg 83%
04:00 -1°C° 0 mm 3 mps 763 mmHg 88%
05:00 0°C° 0 mm 3 mps 763 mmHg 78%
06:00 +2°C° 0 mm 3 mps 763 mmHg 68%
07:00 +4°C° 0 mm 3 mps 763 mmHg 58%
08:00 +5°C° 0 mm 4 mps 763 mmHg 51%
09:00 +7°C° 0 mm 5 mps 763 mmHg 45%
10:00 +9°C° 0 mm 5 mps 763 mmHg 38%
11:00 +9°C° 0 mm 5 mps 762 mmHg 38%
12:00 +9°C° 0 mm 5 mps 762 mmHg 38%
13:00 +10°C° 0 mm 5 mps 762 mmHg 38%
14:00 +9°C° 0 mm 5 mps 762 mmHg 40%
15:00 +10°C° 0 mm 4 mps 762 mmHg 42%
16:00 +10°C° 0 mm 4 mps 762 mmHg 43%
17:00 +7°C° 0 mm 4 mps 762 mmHg 53%
18:00 +5°C° 0 mm 3 mps 762 mmHg 63%
19:00 +3°C° 0 mm 3 mps 762 mmHg 73%
20:00 +3°C° 0 mm 2 mps 762 mmHg 75%
21:00 +2°C° 0 mm 2 mps 762 mmHg 77%
22:00 +2°C° 0 mm 1 mps 762 mmHg 79%
23:00 +2°C° 0 mm 1 mps 762 mmHg 76%

27 April, Tuesday

Time Temperature Precipitation Wind Pressure Humidity
00:00 +2°C° 0 mm 1 mps 762 mmHg 73%
01:00 +2°C° 0 mm 1 mps 761 mmHg 70%
02:00 +2°C° 0 mm 1 mps 761 mmHg 69%
03:00 +1°C° 0 mm 2 mps 760 mmHg 68%
04:00 +1°C° 0 mm 2 mps 760 mmHg 67%
05:00 +2°C° 0 mm 2 mps 760 mmHg 64%
06:00 +3°C° 0 mm 2 mps 760 mmHg 61%
07:00 +4°C° 0 mm 3 mps 759 mmHg 58%
08:00 +5°C° 0 mm 3 mps 759 mmHg 56%
09:00 +8°C° 0 mm 3 mps 759 mmHg 53%
10:00 +9°C° 0 mm 3 mps 758 mmHg 50%
11:00 +10°C° 0 mm 4 mps 757 mmHg 49%
12:00 +11°C° 0 mm 4 mps 757 mmHg 47%
13:00 +11°C° 0 mm 4 mps 756 mmHg 45%
14:00 +11°C° 0 mm 4 mps 755 mmHg 48%
15:00 +11°C° 0 mm 4 mps 755 mmHg 50%
16:00 +11°C° 0 mm 4 mps 754 mmHg 53%
17:00 +10°C° 0 mm 4 mps 754 mmHg 56%
18:00 +8°C° 0 mm 5 mps 754 mmHg 60%
19:00 +7°C° 0 mm 5 mps 753 mmHg 63%
20:00 +6°C° 0 mm 5 mps 753 mmHg 65%
21:00 +6°C° 0 mm 5 mps 753 mmHg 67%
22:00 +5°C° 0 mm 5 mps 752 mmHg 69%
23:00 +5°C° 0.1 mm 5 mps 752 mmHg 71%
Show more